Time,TemperatureF,DewpointF,PressureIn,WindDirection,WindDirectionDegrees,WindSpeedMPH,WindSpeedGustMPH,Humidity,HourlyPrecipIn,Conditions,Clouds,dailyrainin,SoftwareType,DateUTC
2013-08-07 00:08:00,67.5,66.0,29.97,South,180,2.7,-999.0,95,-99.99,,,0.00,Acu-Link.com,2013-08-07 04:08:00,
2013-08-07 00:23:00,67.5,66.0,29.97,South,180,2.2,-999.0,95,-99.99,,,0.00,Acu-Link.com,2013-08-07 04:23:00,
2013-08-07 00:38:00,67.3,65.8,29.97,SW,225,5.3,-999.0,95,-99.99,,,0.00,Acu-Link.com,2013-08-07 04:38:00,
2013-08-07 00:53:00,67.3,65.8,29.97,WSW,247,4.2,-999.0,95,-99.99,,,0.00,Acu-Link.com,2013-08-07 04:53:00,
2013-08-07 01:08:00,67.3,65.5,29.97,SW,225,4.2,-999.0,94,-99.99,,,0.00,Acu-Link.com,2013-08-07 05:08:00,
2013-08-07 01:24:00,67.3,65.5,29.97,SW,225,2.7,-999.0,94,-99.99,,,0.00,Acu-Link.com,2013-08-07 05:24:00,
2013-08-07 01:39:00,67.1,65.3,29.96,SW,225,5.8,-999.0,94,-99.99,,,0.00,Acu-Link.com,2013-08-07 05:39:00,
2013-08-07 01:54:00,67.1,65.3,29.95,SW,225,2.7,-999.0,94,-99.99,,,0.00,Acu-Link.com,2013-08-07 05:54:00,
2013-08-07 02:09:00,66.9,65.1,29.95,SW,225,3.7,-999.0,94,-99.99,,,0.00,Acu-Link.com,2013-08-07 06:09:00,
2013-08-07 02:25:00,66.9,65.1,29.95,SW,225,2.7,-999.0,94,-99.99,,,0.00,Acu-Link.com,2013-08-07 06:25:00,
2013-08-07 02:40:00,66.9,65.1,29.95,SW,225,4.7,-999.0,94,-99.99,,,0.00,Acu-Link.com,2013-08-07 06:40:00,
2013-08-07 02:55:00,66.7,64.9,29.95,SW,225,5.8,-999.0,94,-99.99,,,0.00,Acu-Link.com,2013-08-07 06:55:00,
2013-08-07 03:10:00,66.7,64.9,29.96,SSW,202,5.8,-999.0,94,-99.99,,,0.00,Acu-Link.com,2013-08-07 07:10:00,
2013-08-07 03:25:00,66.6,64.8,29.95,SSW,202,4.2,-999.0,94,-99.99,,,0.00,Acu-Link.com,2013-08-07 07:25:00,
2013-08-07 03:41:00,66.6,64.8,29.95,SSW,202,2.2,-999.0,94,-99.99,,,0.00,Acu-Link.com,2013-08-07 07:41:00,
2013-08-07 03:56:00,66.4,64.6,29.96,WSW,247,1.7,-999.0,94,-99.99,,,0.00,Acu-Link.com,2013-08-07 07:56:00,
2013-08-07 04:11:00,66.4,64.6,29.96,SSW,202,3.2,-999.0,94,-99.99,,,0.00,Acu-Link.com,2013-08-07 08:11:00,
2013-08-07 04:26:00,66.4,64.6,29.96,SSW,202,2.7,-999.0,94,-99.99,,,0.00,Acu-Link.com,2013-08-07 08:26:00,
2013-08-07 04:42:00,66.4,64.6,29.95,WSW,247,1.1,-999.0,94,-99.99,,,0.00,Acu-Link.com,2013-08-07 08:42:00,
2013-08-07 04:57:00,66.4,64.6,29.96,South,180,0.0,-999.0,94,-99.99,,,0.00,Acu-Link.com,2013-08-07 08:57:00,
2013-08-07 05:12:00,66.4,64.6,29.96,SW,225,2.2,-999.0,94,-99.99,,,0.00,Acu-Link.com,2013-08-07 09:12:00,
2013-08-07 05:27:00,66.4,64.6,29.95,South,180,2.7,-999.0,94,-99.99,,,0.00,Acu-Link.com,2013-08-07 09:27:00,
2013-08-07 05:42:00,66.4,64.6,29.95,West,270,0.0,-999.0,94,-99.99,,,0.00,Acu-Link.com,2013-08-07 09:42:00,
2013-08-07 05:57:00,66.4,64.6,29.96,SSW,202,1.7,-999.0,94,-99.99,,,0.00,Acu-Link.com,2013-08-07 09:57:00,
2013-08-07 06:13:00,66.4,64.6,29.96,SW,225,0.0,-999.0,94,-99.99,,,0.00,Acu-Link.com,2013-08-07 10:13:00,
2013-08-07 06:28:00,66.2,64.7,29.96,South,180,0.0,-999.0,95,-99.99,,,0.00,Acu-Link.com,2013-08-07 10:28:00,
2013-08-07 06:43:00,65.8,64.3,29.96,SSE,157,3.2,-999.0,95,-99.99,,,0.00,Acu-Link.com,2013-08-07 10:43:00,
2013-08-07 06:59:00,66.0,64.5,29.97,NW,315,0.0,-999.0,95,-99.99,,,0.00,Acu-Link.com,2013-08-07 10:59:00,
2013-08-07 07:14:00,66.0,64.8,29.97,SSW,202,0.0,-999.0,96,-99.99,,,0.00,Acu-Link.com,2013-08-07 11:14:00,
2013-08-07 07:29:00,66.4,65.2,29.97,South,180,3.2,-999.0,96,-99.99,,,0.00,Acu-Link.com,2013-08-07 11:29:00,
2013-08-07 07:45:00,66.4,65.2,29.97,SSW,202,4.2,-999.0,96,-99.99,,,0.00,Acu-Link.com,2013-08-07 11:45:00,
2013-08-07 08:00:00,66.6,65.4,29.98,SSE,157,1.7,-999.0,96,-99.99,,,0.00,Acu-Link.com,2013-08-07 12:00:00,
2013-08-07 08:15:00,67.1,65.9,29.98,South,180,1.1,-999.0,96,-99.99,,,0.00,Acu-Link.com,2013-08-07 12:15:00,
2013-08-07 08:30:00,67.8,66.3,29.99,SSW,202,0.0,-999.0,95,-99.99,,,0.00,Acu-Link.com,2013-08-07 12:30:00,
2013-08-07 08:45:00,68.7,66.6,29.98,SW,225,3.2,-999.0,93,-99.99,,,0.00,Acu-Link.com,2013-08-07 12:45:00,
2013-08-07 09:01:00,68.5,66.4,29.99,South,180,5.8,-999.0,93,-99.99,,,0.00,Acu-Link.com,2013-08-07 13:01:00,
2013-08-07 09:16:00,69.1,67.0,29.99,SW,225,3.7,-999.0,93,-99.99,,,0.00,Acu-Link.com,2013-08-07 13:16:00,
2013-08-07 09:31:00,69.1,67.0,29.98,South,180,5.8,-999.0,93,-99.99,,,0.00,Acu-Link.com,2013-08-07 13:31:00,
2013-08-07 09:47:00,70.5,67.7,29.98,SSW,202,7.3,-999.0,91,-99.99,,,0.00,Acu-Link.com,2013-08-07 13:47:00,
2013-08-07 10:02:00,71.2,68.1,29.99,WSW,247,4.7,-999.0,90,-99.99,,,0.00,Acu-Link.com,2013-08-07 14:02:00,
2013-08-07 10:17:00,71.1,68.0,29.98,West,270,3.7,-999.0,90,-99.99,,,0.00,Acu-Link.com,2013-08-07 14:17:00,
2013-08-07 10:33:00,72.0,68.6,29.99,WSW,247,4.7,-999.0,89,-99.99,,,0.00,Acu-Link.com,2013-08-07 14:33:00,
2013-08-07 10:48:00,71.1,68.3,29.99,SSW,202,6.3,-999.0,91,-99.99,,,0.00,Acu-Link.com,2013-08-07 14:48:00,
2013-08-07 11:03:00,70.9,68.5,29.99,SE,135,3.7,-999.0,92,-99.99,,,0.00,Acu-Link.com,2013-08-07 15:03:00,
2013-08-07 11:18:00,71.1,68.3,30.00,South,180,5.3,-999.0,91,-99.99,,,0.00,Acu-Link.com,2013-08-07 15:18:00,
2013-08-07 11:33:00,70.7,67.9,30.01,SE,135,4.2,-999.0,91,-99.99,,,0.00,Acu-Link.com,2013-08-07 15:33:00,
2013-08-07 11:49:00,71.2,68.4,30.00,South,180,5.8,-999.0,91,-99.99,,,0.00,Acu-Link.com,2013-08-07 15:49:00,
2013-08-07 12:04:00,69.8,67.4,30.01,SSW,202,3.7,-999.0,92,-99.99,,,0.00,Acu-Link.com,2013-08-07 16:04:00,
2013-08-07 12:19:00,70.3,68.2,30.00,SSW,202,4.7,-999.0,93,-99.99,,,0.00,Acu-Link.com,2013-08-07 16:19:00,
2013-08-07 12:34:00,72.0,69.5,29.98,SSW,202,4.2,-999.0,92,-99.99,,,0.00,Acu-Link.com,2013-08-07 16:34:00,
2013-08-07 12:49:00,71.6,69.1,29.99,South,180,2.2,-999.0,92,-99.99,,,0.00,Acu-Link.com,2013-08-07 16:49:00,
2013-08-07 13:04:00,71.4,68.9,29.99,South,180,3.7,-999.0,92,-99.99,,,0.00,Acu-Link.com,2013-08-07 17:04:00,
2013-08-07 13:20:00,70.2,68.1,29.98,South,180,3.2,-999.0,93,-99.99,,,0.00,Acu-Link.com,2013-08-07 17:20:00,
2013-08-07 13:35:00,70.5,68.7,29.99,South,180,5.8,-999.0,94,-99.99,,,0.00,Acu-Link.com,2013-08-07 17:35:00,
2013-08-07 13:50:00,70.9,68.8,29.98,SE,135,2.7,-999.0,93,-99.99,,,0.00,Acu-Link.com,2013-08-07 17:50:00,
2013-08-07 14:06:00,72.0,69.5,29.98,South,180,2.7,-999.0,92,-99.99,,,0.00,Acu-Link.com,2013-08-07 18:06:00,
2013-08-07 14:21:00,72.0,69.5,29.98,South,180,3.7,-999.0,92,-99.99,,,0.00,Acu-Link.com,2013-08-07 18:21:00,
2013-08-07 14:36:00,73.4,70.6,29.98,SSW,202,4.7,-999.0,91,-99.99,,,0.00,Acu-Link.com,2013-08-07 18:36:00,
2013-08-07 14:51:00,73.4,70.3,29.98,SSW,202,5.8,-999.0,90,-99.99,,,0.00,Acu-Link.com,2013-08-07 18:51:00,
2013-08-07 15:06:00,73.4,70.3,29.98,SSW,202,6.8,-999.0,90,-99.99,,,0.00,Acu-Link.com,2013-08-07 19:06:00,
2013-08-07 15:22:00,73.2,70.4,29.97,SE,135,6.3,-999.0,91,-99.99,,,0.00,Acu-Link.com,2013-08-07 19:22:00,
2013-08-07 15:37:00,73.2,70.1,29.97,SW,225,4.7,-999.0,90,-99.99,,,0.00,Acu-Link.com,2013-08-07 19:37:00,
2013-08-07 15:52:00,75.9,71.7,29.96,South,180,4.7,-999.0,87,-99.99,,,0.00,Acu-Link.com,2013-08-07 19:52:00,
2013-08-07 16:07:00,73.8,70.3,29.95,SW,225,5.8,-999.0,89,-99.99,,,0.00,Acu-Link.com,2013-08-07 20:07:00,
2013-08-07 16:22:00,72.9,69.8,29.96,SSW,202,4.2,-999.0,90,-99.99,,,0.00,Acu-Link.com,2013-08-07 20:22:00,
2013-08-07 16:37:00,73.0,69.9,29.97,South,180,6.8,-999.0,90,-99.99,,,0.00,Acu-Link.com,2013-08-07 20:37:00,
2013-08-07 16:53:00,72.7,69.6,29.97,SSW,202,3.7,-999.0,90,-99.99,,,0.00,Acu-Link.com,2013-08-07 20:53:00,
2013-08-07 17:08:00,72.3,69.2,29.96,SSW,202,4.2,-999.0,90,-99.99,,,0.00,Acu-Link.com,2013-08-07 21:08:00,
2013-08-07 17:23:00,72.3,69.2,29.96,SSW,202,7.8,-999.0,90,-99.99,,,0.00,Acu-Link.com,2013-08-07 21:23:00,
2013-08-07 17:38:00,72.0,69.2,29.96,South,180,5.8,-999.0,91,-99.99,,,0.00,Acu-Link.com,2013-08-07 21:38:00,
2013-08-07 17:53:00,71.1,68.7,29.95,South,180,5.3,-999.0,92,-99.99,,,0.00,Acu-Link.com,2013-08-07 21:53:00,
2013-08-07 18:09:00,70.9,68.5,29.96,South,180,4.2,-999.0,92,-99.99,,,0.00,Acu-Link.com,2013-08-07 22:09:00,
2013-08-07 18:24:00,70.7,68.3,29.95,SSW,202,5.8,-999.0,92,-99.99,,,0.00,Acu-Link.com,2013-08-07 22:24:00,
2013-08-07 18:39:00,71.2,68.8,29.95,South,180,3.7,-999.0,92,-99.99,,,0.00,Acu-Link.com,2013-08-07 22:39:00,
2013-08-07 18:54:00,70.3,67.9,29.95,South,180,8.3,-999.0,92,-99.99,,,0.00,Acu-Link.com,2013-08-07 22:54:00,
2013-08-07 19:09:00,70.2,67.8,29.96,SSW,202,2.7,-999.0,92,-99.99,,,0.00,Acu-Link.com,2013-08-07 23:09:00,
2013-08-07 19:25:00,70.0,67.6,29.96,SW,225,3.7,-999.0,92,-99.99,,,0.00,Acu-Link.com,2013-08-07 23:25:00,
2013-08-07 19:40:00,69.8,67.4,29.96,SSW,202,3.2,-999.0,92,-99.99,,,0.00,Acu-Link.com,2013-08-07 23:40:00,
2013-08-07 19:55:00,69.8,67.4,29.96,SSW,202,6.3,-999.0,92,-99.99,,,0.00,Acu-Link.com,2013-08-07 23:55:00,
2013-08-07 20:10:00,69.6,67.2,29.96,South,180,5.8,-999.0,92,-99.99,,,0.00,Acu-Link.com,2013-08-08 00:10:00,
2013-08-07 20:25:00,69.4,67.0,29.96,SSE,157,4.2,-999.0,92,-99.99,,,0.00,Acu-Link.com,2013-08-08 00:25:00,
2013-08-07 20:40:00,69.4,67.0,29.96,SE,135,6.3,-999.0,92,-99.99,,,0.00,Acu-Link.com,2013-08-08 00:40:00,
2013-08-07 20:56:00,69.4,67.3,29.97,ENE,67,3.7,-999.0,93,-99.99,,,0.00,Acu-Link.com,2013-08-08 00:56:00,
2013-08-07 21:11:00,69.3,67.2,29.98,South,180,4.2,-999.0,93,-99.99,,,0.00,Acu-Link.com,2013-08-08 01:11:00,
2013-08-07 21:26:00,69.1,67.0,29.98,East,90,0.0,-999.0,93,-99.99,,,0.00,Acu-Link.com,2013-08-08 01:26:00,
2013-08-07 21:42:00,68.9,66.8,29.98,South,180,3.7,-999.0,93,-99.99,,,0.00,Acu-Link.com,2013-08-08 01:42:00,
2013-08-07 21:57:00,68.9,66.8,29.97,ESE,112,4.2,-999.0,93,-99.99,,,0.00,Acu-Link.com,2013-08-08 01:57:00,
2013-08-07 22:12:00,69.1,67.0,29.97,SSE,157,4.7,-999.0,93,-99.99,,,0.00,Acu-Link.com,2013-08-08 02:12:00,
2013-08-07 22:28:00,69.1,67.0,29.97,SSE,157,4.7,-999.0,93,-99.99,,,0.00,Acu-Link.com,2013-08-08 02:28:00,
2013-08-07 22:43:00,68.9,66.5,29.98,South,180,2.7,-999.0,92,-99.99,,,0.00,Acu-Link.com,2013-08-08 02:43:00,
2013-08-07 22:58:00,68.5,66.1,29.98,ENE,67,1.7,-999.0,92,-99.99,,,0.00,Acu-Link.com,2013-08-08 02:58:00,
2013-08-07 23:13:00,68.5,66.1,29.98,SSE,157,4.2,-999.0,92,-99.99,,,0.00,Acu-Link.com,2013-08-08 03:13:00,
2013-08-07 23:29:00,68.7,66.3,29.99,SSW,202,2.7,-999.0,92,-99.99,,,0.00,Acu-Link.com,2013-08-08 03:29:00,
2013-08-07 23:44:00,68.9,66.5,29.98,SSE,157,4.2,-999.0,92,-99.99,,,0.00,Acu-Link.com,2013-08-08 03:44:00,
2013-08-07 23:59:00,68.7,66.3,29.98,South,180,3.2,-999.0,92,-99.99,,,0.00,Acu-Link.com,2013-08-08 03:59:00,